TimeEST,TemperatureF,Dew PointF,Humidity,Sea Level PressureIn,VisibilityMPH,Wind Direction,Wind SpeedMPH,Gust SpeedMPH,PrecipitationIn,Events,Conditions,WindDirDegrees,DateUTC
12:29 AM,5.0,-0.4,78,29.99,5.0,Calm,Calm,-,N/A,,Haze,0,2013-02-02 05:29:00
12:51 AM,5.0,-0.0,80,30.11,8.0,Calm,Calm,-,N/A,,Overcast,0,2013-02-02 05:51:00
1:51 AM,3.0,-0.9,84,30.12,10.0,Calm,Calm,-,N/A,,Mostly Cloudy,0,2013-02-02 06:51:00
2:06 AM,1.4,-2.2,85,30.01,10.0,Calm,Calm,-,N/A,,Scattered Clouds,0,2013-02-02 07:06:00
2:51 AM,-0.0,-2.9,88,30.14,10.0,SW,3.5,-,N/A,,Mostly Cloudy,230,2013-02-02 07:51:00
3:11 AM,1.4,-2.2,85,30.01,10.0,Calm,Calm,-,N/A,,Overcast,0,2013-02-02 08:11:00
3:51 AM,1.9,-2.0,83,30.12,9.0,Calm,Calm,-,N/A,,Overcast,0,2013-02-02 08:51:00
4:51 AM,1.9,-0.9,88,30.10,10.0,Calm,Calm,-,N/A,,Overcast,0,2013-02-02 09:51:00
5:51 AM,1.9,-0.0,91,30.10,10.0,SW,3.5,-,N/A,,Overcast,220,2013-02-02 10:51:00
6:39 AM,1.4,-0.4,92,29.99,2.5,SW,4.6,-,0.00,Snow,Light Snow,230,2013-02-02 11:39:00
6:46 AM,1.4,-0.4,92,29.99,4.0,SW,5.8,-,0.00,Snow,Light Snow,230,2013-02-02 11:46:00
6:51 AM,3.0,-0.9,84,30.10,6.0,SW,4.6,-,0.00,,Overcast,230,2013-02-02 11:51:00
7:24 AM,3.2,1.4,92,29.99,2.0,SW,6.9,-,0.00,Snow,Light Snow,230,2013-02-02 12:24:00
7:33 AM,5.0,1.4,85,29.98,1.2,SW,6.9,-,0.00,Snow,Light Snow,220,2013-02-02 12:33:00
7:43 AM,5.0,1.4,85,29.99,1.8,SW,6.9,-,0.00,Snow,Light Snow,230,2013-02-02 12:43:00
7:51 AM,5.0,1.0,84,30.10,1.5,SW,8.1,-,0.00,Snow,Light Snow,230,2013-02-02 12:51:00
8:00 AM,5.0,1.4,85,29.99,2.5,SW,6.9,-,0.00,Snow,Light Snow,230,2013-02-02 13:00:00
8:09 AM,6.8,1.4,79,29.99,4.0,SW,8.1,-,0.00,,Overcast,220,2013-02-02 13:09:00
8:47 AM,6.8,3.2,85,29.98,2.0,SW,5.8,-,0.00,Snow,Light Snow,230,2013-02-02 13:47:00
8:51 AM,7.0,3.0,84,30.08,1.2,SW,3.5,-,0.00,Snow,Light Snow,230,2013-02-02 13:51:00
9:09 AM,8.6,3.2,79,29.97,0.5,SSW,5.8,-,0.00,Fog-Snow,Light Snow,210,2013-02-02 14:09:00
9:33 AM,8.6,5.0,85,29.96,1.0,SSW,11.5,-,0.00,Snow,Light Snow,210,2013-02-02 14:33:00
9:46 AM,10.4,5.0,79,29.96,0.5,SW,12.7,-,0.00,Snow,Snow,220,2013-02-02 14:46:00
9:51 AM,10.0,5.0,80,30.06,0.8,SSW,11.5,-,0.00,Snow,Light Snow,210,2013-02-02 14:51:00
10:38 AM,10.4,6.8,85,29.95,0.8,SW,11.5,18.4,0.00,Snow,Light Snow,220,2013-02-02 15:38:00
10:51 AM,12.0,7.0,80,30.05,1.0,SSW,12.7,-,0.00,Snow,Light Snow,200,2013-02-02 15:51:00
11:14 AM,12.2,6.8,79,29.93,2.0,SSW,13.8,-,0.00,Snow,Light Snow,210,2013-02-02 16:14:00
11:33 AM,12.2,6.8,79,29.92,1.8,SSW,13.8,-,0.00,Snow,Light Snow,200,2013-02-02 16:33:00
11:51 AM,12.9,7.0,77,30.01,2.0,SSW,15.0,-,0.00,Snow,Light Snow,210,2013-02-02 16:51:00
12:02 PM,12.2,6.8,79,29.90,1.8,SW,11.5,-,0.00,Snow,Light Snow,230,2013-02-02 17:02:00
12:31 PM,12.2,8.6,85,29.90,0.8,SW,12.7,-,0.00,Snow,Light Snow,220,2013-02-02 17:31:00
12:51 PM,12.9,8.1,81,30.00,0.8,SW,10.4,-,0.00,Snow,Light Snow,220,2013-02-02 17:51:00
1:07 PM,12.2,8.6,85,29.89,1.0,SW,9.2,-,0.00,Snow,Light Snow,230,2013-02-02 18:07:00
1:18 PM,12.2,8.6,85,29.88,0.8,WSW,6.9,-,0.00,Snow,Light Snow,240,2013-02-02 18:18:00
1:36 PM,14.0,8.6,79,29.88,0.5,SW,8.1,-,0.00,Snow,Snow,230,2013-02-02 18:36:00
1:51 PM,12.9,9.0,84,29.99,0.5,SW,10.4,-,0.00,Fog-Snow,Snow,230,2013-02-02 18:51:00
2:00 PM,14.0,8.6,79,29.87,1.0,WSW,9.2,-,0.00,Snow,Light Snow,240,2013-02-02 19:00:00
2:51 PM,12.9,8.1,81,29.99,1.0,SW,11.5,-,0.00,Snow,Light Snow,220,2013-02-02 19:51:00
3:27 PM,12.2,8.6,85,29.87,2.5,SSW,6.9,-,0.00,,Haze,210,2013-02-02 20:27:00
3:36 PM,12.2,8.6,85,29.87,1.0,SSW,6.9,-,0.00,Snow,Light Snow,210,2013-02-02 20:36:00
3:51 PM,12.9,9.0,84,29.98,0.8,SW,6.9,-,0.00,Snow,Light Snow,220,2013-02-02 20:51:00
4:10 PM,12.2,8.6,85,29.87,1.2,SSW,8.1,-,0.00,Snow,Light Snow,210,2013-02-02 21:10:00
4:47 PM,12.2,8.6,85,29.87,3.0,SSW,12.7,-,0.00,,Haze,210,2013-02-02 21:47:00
4:51 PM,12.9,7.0,77,29.98,4.0,SSW,8.1,-,0.00,,Haze,210,2013-02-02 21:51:00
5:01 PM,12.2,6.8,79,29.87,5.0,SW,6.9,-,N/A,,Haze,220,2013-02-02 22:01:00
5:51 PM,12.0,6.1,77,29.99,10.0,SW,4.6,-,N/A,,Overcast,220,2013-02-02 22:51:00
6:51 PM,8.1,5.0,87,29.99,10.0,Calm,Calm,-,N/A,,Overcast,0,2013-02-02 23:51:00
8:51 PM,3.0,1.9,95,30.01,10.0,SW,3.5,-,N/A,,Overcast,220,2013-02-03 01:51:00
9:31 PM,5.0,1.4,85,29.89,2.0,SW,3.5,-,0.00,Snow,Light Snow,230,2013-02-03 02:31:00
9:49 PM,8.6,5.0,85,29.89,4.0,SW,5.8,-,0.00,,Overcast,230,2013-02-03 02:49:00
9:51 PM,8.1,5.0,87,30.00,4.0,SW,5.8,-,0.00,,Overcast,230,2013-02-03 02:51:00
10:51 PM,10.0,6.1,84,29.99,8.0,SW,5.8,-,N/A,,Overcast,230,2013-02-03 03:51:00
11:33 PM,10.4,6.8,85,29.88,4.0,SW,5.8,-,0.00,,Overcast,230,2013-02-03 04:33:00
11:51 PM,9.0,5.0,84,29.98,10.0,SW,4.6,-,0.00,,Overcast,230,2013-02-03 04:51:00